EAG5508 SAEZ-SUMU

Flight info

Callsign EAG5508
Flight time 0h 34m
Altitude 13000
Route DORVO A305 TOKAM
Aircraft AT76/M-SDFGIRY/S

Departure

Time 2026-05-06 15:55
Airport Ezeiza International Airport - Ministro Pistarini (SAEZ)

Arrival

Time 2026-05-06 16:29
Airport Carrasco General Cesáreo L. Berisso International Airport (SUMU)
Time Latitude Longitude Altitude Speed Heading
2026-05-06 15:28 -34.81481 -58.53512 67 ft 0 kts 106°
2026-05-06 15:46 -34.81481 -58.53513 72 ft 2 kts 106°
2026-05-06 15:46 -34.81474 -58.53542 66 ft 4 kts 110°
2026-05-06 15:46 -34.81463 -58.53572 68 ft 4 kts 118°
2026-05-06 15:46 -34.81449 -58.53599 70 ft 4 kts 138°
2026-05-06 15:47 -34.81429 -58.53611 72 ft 2 kts 192°
2026-05-06 15:47 -34.81423 -58.53609 72 ft 0 kts 194°
2026-05-06 15:49 -34.81445 -58.53617 70 ft 6 kts 199°
2026-05-06 15:49 -34.81499 -58.53644 72 ft 10 kts 204°
2026-05-06 15:49 -34.81563 -58.53691 72 ft 11 kts 221°
2026-05-06 15:50 -34.81624 -58.53762 72 ft 13 kts 223°
2026-05-06 15:50 -34.81691 -58.53839 68 ft 14 kts 224°
2026-05-06 15:50 -34.81746 -58.53939 64 ft 15 kts 242°
2026-05-06 15:50 -34.81791 -58.54058 72 ft 16 kts 258°
2026-05-06 15:51 -34.81784 -58.54173 70 ft 12 kts 281°
2026-05-06 15:51 -34.81773 -58.54286 72 ft 15 kts 277°
2026-05-06 15:51 -34.81809 -58.54383 70 ft 13 kts 213°
2026-05-06 15:51 -34.81885 -58.54447 73 ft 13 kts 214°
2026-05-06 15:52 -34.81913 -58.54470 74 ft 2 kts 214°
2026-05-06 15:52 -34.81914 -58.54470 74 ft 0 kts 214°
2026-05-06 15:53 -34.81919 -58.54474 74 ft 3 kts 214°
2026-05-06 15:53 -34.81950 -58.54500 72 ft 7 kts 214°
2026-05-06 15:53 -34.81999 -58.54540 68 ft 9 kts 215°
2026-05-06 15:53 -34.82049 -58.54526 75 ft 7 kts 122°
2026-05-06 15:54 -34.82054 -58.54509 72 ft 0 kts 106°
2026-05-06 15:54 -34.82072 -58.54412 74 ft 38 kts 102°
2026-05-06 15:54 -34.82169 -58.53865 73 ft 95 kts 102°
2026-05-06 15:55 -34.82342 -58.52918 216 ft 125 kts 101°
2026-05-06 15:55 -34.82538 -58.51803 378 ft 150 kts 102°
2026-05-06 15:55 -34.82862 -58.50537 538 ft 166 kts 117°
2026-05-06 15:55 -34.83738 -58.49515 710 ft 183 kts 141°
2026-05-06 15:56 -34.84773 -58.48588 1034 ft 189 kts 138°
2026-05-06 15:56 -34.85727 -58.47525 1353 ft 182 kts 117°
2026-05-06 15:56 -34.86252 -58.46151 1624 ft 181 kts 105°
2026-05-06 15:56 -34.86762 -58.44717 1894 ft 188 kts 106°
2026-05-06 15:57 -34.87320 -58.43247 2216 ft 193 kts 107°
2026-05-06 15:57 -34.87931 -58.41795 2510 ft 198 kts 110°
2026-05-06 15:57 -34.88604 -58.40313 2826 ft 202 kts 112°
2026-05-06 15:57 -34.89315 -58.38823 3167 ft 205 kts 115°
2026-05-06 15:58 -34.90102 -58.37354 3501 ft 207 kts 116°
2026-05-06 15:58 -34.90800 -58.35833 3837 ft 203 kts 103°
2026-05-06 15:58 -34.91122 -58.34195 4149 ft 197 kts 92°
2026-05-06 15:58 -34.91327 -58.32549 4501 ft 197 kts 89°
2026-05-06 15:59 -34.91523 -58.30899 4826 ft 197 kts 90°
2026-05-06 15:59 -34.91721 -58.29266 5130 ft 199 kts 90°
2026-05-06 15:59 -34.91950 -58.27599 5461 ft 200 kts 91°
2026-05-06 15:59 -34.92193 -58.25930 5846 ft 200 kts 92°
2026-05-06 16:00 -34.92441 -58.24250 6217 ft 203 kts 92°
2026-05-06 16:00 -34.92698 -58.22555 6511 ft 204 kts 91°
2026-05-06 16:00 -34.92951 -58.20853 6787 ft 204 kts 91°
2026-05-06 16:00 -34.93202 -58.19143 7036 ft 206 kts 91°
2026-05-06 16:01 -34.93456 -58.17424 7309 ft 207 kts 91°
2026-05-06 16:01 -34.93711 -58.15697 7579 ft 208 kts 91°
2026-05-06 16:01 -34.93964 -58.13986 7849 ft 209 kts 92°
2026-05-06 16:01 -34.94223 -58.12241 8122 ft 209 kts 91°
2026-05-06 16:02 -34.94483 -58.10489 8390 ft 211 kts 91°
2026-05-06 16:02 -34.94744 -58.08724 8652 ft 212 kts 91°
2026-05-06 16:02 -34.95005 -58.06949 8922 ft 213 kts 91°
2026-05-06 16:02 -34.95267 -58.05167 9183 ft 214 kts 91°
2026-05-06 16:03 -34.95531 -58.03377 9444 ft 215 kts 91°
2026-05-06 16:03 -34.95796 -58.01582 9698 ft 216 kts 90°
2026-05-06 16:03 -34.96055 -57.99805 9919 ft 217 kts 91°
2026-05-06 16:03 -34.96322 -57.97988 10138 ft 218 kts 91°
2026-05-06 16:04 -34.96584 -57.96160 10350 ft 220 kts 91°
2026-05-06 16:04 -34.96852 -57.94317 10564 ft 222 kts 92°
2026-05-06 16:04 -34.97125 -57.92459 10774 ft 223 kts 92°
2026-05-06 16:04 -34.97237 -57.90607 10969 ft 212 kts 68°
2026-05-06 16:05 -34.96715 -57.88990 11120 ft 205 kts 54°
2026-05-06 16:05 -34.96007 -57.87496 11306 ft 202 kts 46°
2026-05-06 16:05 -34.95171 -57.86127 11493 ft 201 kts 41°
2026-05-06 16:05 -34.94284 -57.84840 11682 ft 201 kts 40°
2026-05-06 16:06 -34.93362 -57.83547 11887 ft 203 kts 40°
2026-05-06 16:06 -34.92433 -57.82244 12086 ft 205 kts 40°
2026-05-06 16:06 -34.91503 -57.80921 12284 ft 207 kts 40°
2026-05-06 16:06 -34.90575 -57.79575 12476 ft 209 kts 41°
2026-05-06 16:07 -34.89642 -57.78214 12730 ft 211 kts 40°
2026-05-06 16:07 -34.88682 -57.76819 12885 ft 220 kts 41°
2026-05-06 16:07 -34.87685 -57.75348 12886 ft 230 kts 41°
2026-05-06 16:07 -34.86649 -57.73825 12879 ft 237 kts 42°
2026-05-06 16:08 -34.85584 -57.72260 12878 ft 243 kts 42°
2026-05-06 16:08 -34.84513 -57.70686 12908 ft 248 kts 42°
2026-05-06 16:08 -34.83397 -57.69053 12911 ft 255 kts 43°
2026-05-06 16:08 -34.82250 -57.67372 12896 ft 261 kts 43°
2026-05-06 16:09 -34.81082 -57.65662 12884 ft 265 kts 43°
2026-05-06 16:09 -34.79899 -57.63927 12868 ft 267 kts 43°
2026-05-06 16:09 -34.78713 -57.62184 12858 ft 268 kts 43°
2026-05-06 16:09 -34.77525 -57.60442 12858 ft 267 kts 43°
2026-05-06 16:10 -34.76339 -57.58708 12845 ft 266 kts 43°
2026-05-06 16:10 -34.75176 -57.57010 12842 ft 264 kts 43°
2026-05-06 16:10 -34.74005 -57.55303 12849 ft 262 kts 43°
2026-05-06 16:10 -34.72841 -57.53607 12861 ft 260 kts 43°
2026-05-06 16:11 -34.71917 -57.51720 12861 ft 269 kts 68°
2026-05-06 16:11 -34.71686 -57.49436 12864 ft 276 kts 85°
2026-05-06 16:11 -34.71825 -57.47090 12869 ft 280 kts 92°
2026-05-06 16:11 -34.72087 -57.44738 12870 ft 281 kts 94°
2026-05-06 16:12 -34.72362 -57.42388 12870 ft 281 kts 94°
2026-05-06 16:12 -34.72603 -57.40065 12873 ft 281 kts 92°
2026-05-06 16:12 -34.72801 -57.37707 12871 ft 280 kts 91°
2026-05-06 16:12 -34.72993 -57.35351 12872 ft 280 kts 91°
2026-05-06 16:13 -34.73191 -57.32995 12873 ft 280 kts 92°
2026-05-06 16:13 -34.73387 -57.30644 12877 ft 280 kts 91°
2026-05-06 16:13 -34.73583 -57.28292 12877 ft 280 kts 92°
2026-05-06 16:13 -34.73779 -57.25934 12882 ft 280 kts 91°
2026-05-06 16:14 -34.73972 -57.23582 12882 ft 280 kts 91°
2026-05-06 16:14 -34.74166 -57.21231 12883 ft 280 kts 91°
2026-05-06 16:14 -34.74357 -57.18911 12883 ft 280 kts 91°
2026-05-06 16:14 -34.74549 -57.16558 12882 ft 280 kts 91°
2026-05-06 16:15 -34.74743 -57.14202 12890 ft 280 kts 91°
2026-05-06 16:15 -34.74934 -57.11844 12886 ft 280 kts 91°
2026-05-06 16:15 -34.75124 -57.09486 12876 ft 280 kts 92°
2026-05-06 16:15 -34.75303 -57.07125 12882 ft 280 kts 92°
2026-05-06 16:16 -34.75483 -57.04766 12902 ft 281 kts 92°
2026-05-06 16:16 -34.75670 -57.02396 12895 ft 282 kts 92°
2026-05-06 16:16 -34.75858 -57.00059 12892 ft 282 kts 92°
2026-05-06 16:16 -34.76050 -56.97686 12897 ft 282 kts 92°
2026-05-06 16:17 -34.76242 -56.95315 12892 ft 282 kts 92°
2026-05-06 16:17 -34.76432 -56.92948 12899 ft 281 kts 92°
2026-05-06 16:17 -34.76621 -56.90578 12899 ft 281 kts 92°
2026-05-06 16:17 -34.76807 -56.88209 12899 ft 282 kts 92°
2026-05-06 16:18 -34.76996 -56.85836 12898 ft 282 kts 92°
2026-05-06 16:18 -34.77183 -56.83477 13007 ft 277 kts 92°
2026-05-06 16:18 -34.77361 -56.81196 13145 ft 273 kts 92°
2026-05-06 16:18 -34.77542 -56.78906 13263 ft 270 kts 92°
2026-05-06 16:19 -34.77720 -56.76636 13363 ft 269 kts 92°
2026-05-06 16:19 -34.77899 -56.74375 13462 ft 268 kts 92°
2026-05-06 16:19 -34.78076 -56.72118 13558 ft 268 kts 92°
2026-05-06 16:19 -34.78312 -56.69840 13392 ft 278 kts 98°
2026-05-06 16:20 -34.78757 -56.67483 13086 ft 293 kts 102°
2026-05-06 16:20 -34.79275 -56.65048 12757 ft 302 kts 102°
2026-05-06 16:20 -34.79779 -56.62575 12384 ft 307 kts 101°
2026-05-06 16:20 -34.80246 -56.60021 11935 ft 310 kts 99°
2026-05-06 16:21 -34.80691 -56.57461 11483 ft 309 kts 99°
2026-05-06 16:21 -34.81144 -56.54913 11058 ft 307 kts 99°
2026-05-06 16:21 -34.81599 -56.52377 10637 ft 306 kts 98°
2026-05-06 16:21 -34.82048 -56.49849 10303 ft 305 kts 98°
2026-05-06 16:22 -34.82478 -56.47332 9931 ft 303 kts 98°
2026-05-06 16:22 -34.82917 -56.44834 9377 ft 301 kts 98°
2026-05-06 16:22 -34.83359 -56.42356 8861 ft 298 kts 98°
2026-05-06 16:22 -34.83788 -56.39933 8307 ft 295 kts 98°
2026-05-06 16:23 -34.84214 -56.37514 7772 ft 291 kts 98°
2026-05-06 16:23 -34.84637 -56.35128 7294 ft 286 kts 98°
2026-05-06 16:23 -34.85052 -56.32784 6847 ft 281 kts 98°
2026-05-06 16:23 -34.85460 -56.30474 6403 ft 277 kts 98°
2026-05-06 16:24 -34.85926 -56.28232 5980 ft 271 kts 109°
2026-05-06 16:24 -34.87004 -56.26372 5535 ft 265 kts 132°
2026-05-06 16:24 -34.88382 -56.24905 5089 ft 265 kts 143°
2026-05-06 16:24 -34.89893 -56.23602 4627 ft 268 kts 146°
2026-05-06 16:25 -34.91419 -56.22350 4158 ft 268 kts 146°
2026-05-06 16:25 -34.92828 -56.20936 3698 ft 254 kts 125°
2026-05-06 16:25 -34.93423 -56.19070 3227 ft 227 kts 89°
2026-05-06 16:25 -34.93046 -56.17325 2755 ft 204 kts 52°
2026-05-06 16:26 -34.92160 -56.16093 2279 ft 187 kts 45°
2026-05-06 16:26 -34.91307 -56.14972 1990 ft 172 kts 46°
2026-05-06 16:26 -34.90556 -56.13941 1816 ft 153 kts 47°
2026-05-06 16:26 -34.89910 -56.12971 1586 ft 142 kts 50°
2026-05-06 16:27 -34.89344 -56.12102 1467 ft 131 kts 51°
2026-05-06 16:27 -34.88802 -56.11223 1370 ft 128 kts 52°
2026-05-06 16:27 -34.88267 -56.10322 1217 ft 132 kts 50°
2026-05-06 16:27 -34.87731 -56.09428 1068 ft 129 kts 50°
2026-05-06 16:28 -34.87174 -56.08563 945 ft 131 kts 50°
2026-05-06 16:28 -34.86629 -56.07669 826 ft 132 kts 51°
2026-05-06 16:28 -34.86109 -56.06810 744 ft 122 kts 52°
2026-05-06 16:28 -34.85605 -56.05995 601 ft 119 kts 54°
2026-05-06 16:29 -34.85116 -56.05194 449 ft 116 kts 56°
2026-05-06 16:29 -34.84647 -56.04419 248 ft 112 kts 56°
2026-05-06 16:29 -34.84189 -56.03660 96 ft 109 kts 55°
2026-05-06 16:29 -34.83802 -56.03023 73 ft 47 kts 53°
2026-05-06 16:30 -34.83747 -56.02913 74 ft 9 kts 88°
2026-05-06 16:30 -34.83761 -56.02871 77 ft 8 kts 133°
2026-05-06 16:30 -34.83828 -56.02850 72 ft 8 kts 180°
2026-05-06 16:30 -34.83887 -56.02841 79 ft 9 kts 161°
2026-05-06 16:31 -34.83936 -56.02806 75 ft 8 kts 149°
2026-05-06 16:31 -34.83985 -56.02772 79 ft 7 kts 141°
2026-05-06 16:31 -34.84011 -56.02737 77 ft 5 kts 131°
2026-05-06 16:31 -34.84029 -56.02711 79 ft 4 kts 131°
2026-05-06 16:32 -34.84035 -56.02703 74 ft 0 kts 131°